Location: Belmont
(13.0833°N, 59.6000°W)
Time: 05:19:37
(UTC+00:00)

Cosmos 1842 - Pass Details

Date: 17 September 2019
Orbit: 522 x 538 km, 82.5° (Epoch: 21 October)

Event Time Altitude Azimuth Distance (km) Brightness Sun altitude
Rises 22:36:24 0° 15° (NNE) 2,676 6.7 -10.1°
Reaches altitude 10° 22:38:53 10° 30° (NNE) 1,783 5.7 -10.7°
Maximum altitude 22:42:01 23° 84° (E) 1,164 4.4 -11.5°
Enters shadow 22:44:53 11° 135° (SE) 1,693 5.4 -12.2°
